Change the Weather History Date:

Thursday, December 6, 2012

  Actual Average Record
Temperature  
Mean Temperature 32 °F -  
Max Temperature 37 °F 37 °F 64 °F (1998)
Min Temperature 27 °F 23 °F -1 °F (1964)
Degree Days  
Heating Degree Days 33    
Moisture  
Dew Point 26 °F    
Average Humidity 79    
Maximum Humidity 87    
Minimum Humidity 71    
Precipitation  
Precipitation 0.00 in - - ()
Sea Level Pressure  
Sea Level Pressure 30.11 in    
Wind  
Wind Speed 7 mph (SSE)    
Max Wind Speed 12 mph    
Max Gust Speed 18 mph    
Visibility 10 miles    
Events      
Averages and records for this station are not official NWS values.
T = Trace of Precipitation, MM = Missing Value Source: NWS Daily Summary

Daily Weather History Graph

Daily Weather History Graph

Search for Another Location

Airport or City:

Trip Planner

Search our weather history database for the weather conditions in past years. The results will help you decide how hot, cold, wet, or windy it might be!

Date:

Astronomy

Dec. 06, 2012 Rise Set
Actual Time 7:52 AM EST 5:07 PM EST
Civil Twilight 7:20 AM EST 5:38 PM EST
Nautical Twilight 6:45 AM EST 6:13 PM EST
Astronomical Twilight 6:11 AM EST 6:47 PM EST
Moon 12:00 AM EST (12/6) 12:38 PM EST (12/6)
Length of Visible Light 10h 17m
Length of Day
9h 15m
Waning Gibbous, 49% of the Moon is Illuminated
Dec 6
Waning Gibbous
Dec 13
New
Dec 20
First Quarter
Dec 28
Full
Jan 4
Last Quarter

Hourly Weather History & Observations

Time (EST) Temp. Windchill Dew Point Humidity Pressure Visibility Wind Dir Wind Speed Gust Speed Precip Events Conditions
12:15 AM 27.9 °F 22.6 °F 21.6 °F 77% 30.29 in 10.0 mi SE 4.6 mph - N/A   Clear
12:34 AM 27.9 °F 20.6 °F 21.7 °F 78% 30.28 in 10.0 mi SE 6.9 mph - N/A   Clear
12:55 AM 28.4 °F 20.4 °F 21.7 °F 76% 30.27 in 10.0 mi SE 8.1 mph - N/A   Clear
1:15 AM 27.9 °F 20.6 °F 21.7 °F 78% 30.27 in 10.0 mi SE 6.9 mph - N/A   Clear
1:34 AM 27.7 °F 20.4 °F 21.6 °F 78% 30.26 in 10.0 mi SE 6.9 mph - N/A   Clear
1:55 AM 27.9 °F 20.6 °F 21.7 °F 78% 30.27 in 10.0 mi SE 6.9 mph - N/A   Clear
2:15 AM 27.9 °F 19.8 °F 21.9 °F 78% 30.26 in 10.0 mi SE 8.1 mph - N/A   Clear
2:34 AM 28.0 °F 20.0 °F 21.9 °F 78% 30.25 in 10.0 mi SE 8.1 mph - N/A   Clear
2:55 AM 27.9 °F 20.6 °F 21.7 °F 78% 30.26 in 10.0 mi SE 6.9 mph - N/A   Clear
3:15 AM 27.9 °F 20.6 °F 21.9 °F 78% 30.26 in 10.0 mi SE 6.9 mph - N/A   Clear
3:35 AM 27.9 °F 20.6 °F 21.9 °F 78% 30.25 in 10.0 mi SSE 6.9 mph - N/A   Clear
3:55 AM 27.9 °F 19.8 °F 21.7 °F 78% 30.24 in 10.0 mi SE 8.1 mph - N/A   Clear
4:14 AM 28.0 °F 21.7 °F 21.7 °F 77% 30.24 in 10.0 mi SE 5.8 mph - N/A   Clear
4:35 AM 28.0 °F 21.7 °F 21.9 °F 78% 30.24 in 10.0 mi SSE 5.8 mph - N/A   Clear
4:55 AM 27.9 °F 19.8 °F 21.9 °F 78% 30.24 in 10.0 mi SE 8.1 mph - N/A   Clear
5:14 AM 27.9 °F 19.8 °F 22.3 °F 80% 30.24 in 10.0 mi SE 8.1 mph - N/A   Clear
5:35 AM 27.9 °F 19.8 °F 22.3 °F 80% 30.23 in 10.0 mi SSE 8.1 mph - N/A   Clear
5:55 AM 27.9 °F 20.6 °F 22.5 °F 80% 30.23 in 10.0 mi SSE 6.9 mph - N/A   Clear
6:14 AM 27.9 °F 19.1 °F 22.1 °F 79% 30.22 in 10.0 mi SSE 9.2 mph - N/A   Clear
6:35 AM 28.0 °F 20.0 °F 21.9 °F 78% 30.21 in 10.0 mi SSE 8.1 mph 16.1 mph N/A   Clear
7:14 AM 28.6 °F 19.9 °F 22.3 °F 77% 30.20 in 10.0 mi SSE 9.2 mph - N/A   Clear
7:35 AM 28.6 °F 18.7 °F 22.3 °F 77% 30.19 in 10.0 mi SSE 11.5 mph - N/A   Clear
7:55 AM 28.6 °F 19.9 °F 22.3 °F 77% 30.18 in 10.0 mi SSE 9.2 mph - N/A   Clear
8:15 AM 28.8 °F 20.2 °F 22.5 °F 77% 30.18 in 10.0 mi SE 9.2 mph - N/A   Clear
8:35 AM 28.8 °F 19.5 °F 22.5 °F 77% 30.17 in 10.0 mi SSE 10.4 mph - N/A   Clear
8:54 AM 28.9 °F 19.2 °F 22.5 °F 77% 30.16 in 10.0 mi SSE 11.5 mph 17.3 mph N/A   Clear
9:15 AM 29.5 °F 20.4 °F 22.8 °F 76% 30.17 in 10.0 mi SSE 10.4 mph 16.1 mph N/A   Clear
9:35 AM 29.8 °F 20.9 °F 23.2 °F 76% 30.17 in 10.0 mi South 10.4 mph 18.4 mph N/A   Clear
9:55 AM 30.4 °F 21.5 °F 23.4 °F 75% 30.18 in 10.0 mi South 10.4 mph - N/A   Clear
10:15 AM 30.6 °F 22.4 °F 23.7 °F 76% 30.18 in 10.0 mi SSE 9.2 mph - N/A   Clear
10:34 AM 30.9 °F 22.8 °F 24.3 °F 76% 30.17 in 10.0 mi South 9.2 mph - N/A   Clear
10:55 AM 31.5 °F 24.9 °F 24.4 °F 75% 30.16 in 10.0 mi South 6.9 mph - N/A   Clear
11:14 AM 32.2 °F 25.0 °F 24.6 °F 74% 30.16 in 10.0 mi South 8.1 mph - N/A   Clear
11:35 AM 32.5 °F 25.5 °F 24.8 °F 73% 30.14 in 10.0 mi South 8.1 mph - N/A   Clear
11:55 AM 33.6 °F 27.5 °F 25.7 °F 73% 30.13 in 10.0 mi South 6.9 mph - N/A   Clear
12:15 PM 33.4 °F 27.3 °F 25.7 °F 73% 30.11 in 10.0 mi SSE 6.9 mph - N/A   Clear
12:35 PM 34.9 °F 29.0 °F 26.4 °F 71% 30.09 in 10.0 mi South 6.9 mph - N/A   Clear
12:54 PM 35.4 °F 29.0 °F 27.1 °F 72% 30.08 in 10.0 mi South 8.1 mph - N/A   Clear
1:15 PM 35.6 °F 29.9 °F 27.3 °F 72% 30.07 in 10.0 mi South 6.9 mph - N/A   Clear
1:35 PM 35.8 °F 30.1 °F 27.9 °F 73% 30.06 in 10.0 mi South 6.9 mph - N/A   Clear
1:54 PM 36.0 °F 30.3 °F 28.0 °F 73% 30.05 in 10.0 mi South 6.9 mph - N/A   Clear
2:15 PM 36.9 °F 32.2 °F 28.8 °F 72% 30.05 in 10.0 mi South 5.8 mph - N/A   Clear
2:35 PM 37.0 °F 32.4 °F 29.1 °F 73% 30.03 in 10.0 mi South 5.8 mph - N/A   Clear
2:54 PM 37.2 °F 33.6 °F 29.5 °F 74% 30.02 in 10.0 mi SSE 4.6 mph - N/A   Clear
3:15 PM 37.0 °F 33.3 °F 29.7 °F 75% 30.02 in 10.0 mi South 4.6 mph - N/A   Clear
3:35 PM 37.0 °F 33.3 °F 29.7 °F 75% 30.02 in 10.0 mi SSE 4.6 mph - N/A   Clear
3:55 PM 36.9 °F 33.1 °F 29.8 °F 76% 30.01 in 10.0 mi South 4.6 mph - N/A   Clear
4:15 PM 36.7 °F 32.9 °F 30.2 °F 77% 30.01 in 10.0 mi SSE 4.6 mph - N/A   Clear
4:34 PM 36.1 °F 31.4 °F 30.2 °F 79% 30.01 in 10.0 mi SSE 5.8 mph - N/A   Clear
4:55 PM 36.0 °F 31.1 °F 30.4 °F 80% 30.00 in 10.0 mi SSE 5.8 mph - N/A   Clear
5:15 PM 35.2 °F 31.2 °F 30.0 °F 81% 30.00 in 10.0 mi SSE 4.6 mph - N/A   Clear
5:34 PM 35.1 °F 29.3 °F 30.2 °F 82% 30.00 in 10.0 mi South 6.9 mph - N/A   Clear
5:55 PM 35.1 °F 28.6 °F 30.4 °F 83% 29.99 in 10.0 mi SSE 8.1 mph - N/A   Clear
6:15 PM 34.9 °F 27.7 °F 30.4 °F 84% 29.99 in 10.0 mi SSE 9.2 mph - N/A   Clear
6:35 PM 34.9 °F 30.8 °F 30.6 °F 84% 29.99 in 10.0 mi SSE 4.6 mph - N/A   Clear
6:55 PM 34.9 °F 29.9 °F 30.7 °F 85% 29.99 in 10.0 mi SSE 5.8 mph - N/A   Clear
7:14 PM 34.9 °F 29.9 °F 30.9 °F 85% 29.99 in 10.0 mi SSE 5.8 mph - N/A   Clear
7:35 PM 35.1 °F 29.3 °F 31.1 °F 85% 29.99 in 10.0 mi SSE 6.9 mph - N/A   Clear
7:54 PM 35.1 °F 30.1 °F 31.1 °F 85% 29.98 in 10.0 mi SSE 5.8 mph - N/A   Clear
8:15 PM 35.2 °F 30.3 °F 31.5 °F 86% 29.98 in 10.0 mi SSE 5.8 mph - N/A   Clear
8:34 PM 35.4 °F 30.5 °F 31.6 °F 86% 29.98 in 10.0 mi SSE 5.8 mph - N/A   Scattered Clouds
8:55 PM 35.4 °F 30.5 °F 31.8 °F 87% 29.97 in 10.0 mi SSE 5.8 mph - N/A   Scattered Clouds
9:35 PM 36.0 °F 30.3 °F 32.2 °F 86% 29.97 in 10.0 mi South 6.9 mph - N/A   Scattered Clouds
9:54 PM 36.0 °F 33.3 °F 32.2 °F 86% 29.96 in 10.0 mi SSE 3.5 mph - N/A   Scattered Clouds
10:15 PM 36.0 °F 30.3 °F 32.4 °F 87% 29.96 in 10.0 mi South 6.9 mph - N/A   Clear
10:35 PM 36.1 °F 32.3 °F 32.5 °F 87% 29.95 in 10.0 mi South 4.6 mph - N/A   Scattered Clouds
10:54 PM 36.1 °F 32.3 °F 32.5 °F 87% 29.95 in 10.0 mi South 4.6 mph - N/A   Mostly Cloudy
11:15 PM 36.9 °F 32.2 °F 32.7 °F 85% 29.94 in 10.0 mi South 5.8 mph - N/A   Scattered Clouds
11:35 PM 36.9 °F 33.1 °F 32.7 °F 85% 29.94 in 10.0 mi South 4.6 mph - N/A   Scattered Clouds
11:54 PM 37.0 °F 32.4 °F 33.1 °F 86% 29.94 in 10.0 mi South 5.8 mph - N/A   Overcast